This demonstration page uses our WeatherBlox Daily Observations layout. Learn more.

Left ArrowRight Arrow

Hourly Observations for May 10, 2015

Temp ( °F °C ) Dew Point ( °F °C ) Humidity (%) Winds ( mph kmh ) Pressure ( in mb ) Visibility ( mi km ) Precip ( " mm )
12:58 am 00:58 Partly Cloudy 64 17.8 59 15.1 84 84 E 10 17 29.85 1011 10 16 0.00 0.00
1:33 am 01:33 Mostly Cloudy 64 18 59 15 83 83 E 10 17 29.83 1010 10 16 0.00 0.00
1:58 am 01:58 Mostly Cloudy 64 18 59 15.2 84 84 E 12 19 29.84 1010 10 16 0.00 0.00
2:10 am 02:10 Mostly Cloudy 64 18 59 15 83 83 E 13 20 29.80 1009 10 16 0.00 0.00
2:40 am 02:40 Mostly Cloudy 64 18 59 15 83 83 E 16 26 29.80 1009 10 16 0.00 0.00
2:49 am 02:49 Mostly Cloudy 64 18 59 15 83 83 E 15 24 29.80 1009 10 16 0.00 0.00
2:58 am 02:58 Mostly Cloudy 64 18 60 15.3 84 84 E 16 26 29.82 1010 10 16 0.00 0.00
3:58 am 03:58 Cloudy 64 17.7 60 15.8 89 89 SSE 9 15 29.82 1010 9 14 0.00 0.00
4:02 am 04:02 Cloudy with Rain 64 18 61 16 88 88 SSE 9 15 29.80 1009 8 13 0.00 0.00
4:12 am 04:12 Cloudy with Thunderstorms 63 17 61 16 94 94 ESE 13 20 29.80 1009 4 6 0.00 0.00
4:20 am 04:20 Cloudy with Thunderstorms 63 17 61 16 94 94 ESE 13 20 29.77 1008 4 6 0.00 0.00
4:27 am 04:27 Cloudy with Light Rain 63 17 61 16 94 94 ESE 10 17 29.77 1008 6 10 0.00 0.00
4:33 am 04:33 Mostly Cloudy with Light Rain 63 17 61 16 94 94 ESE 10 17 29.77 1008 8 13 0.00 0.00
4:38 am 04:38 Mostly Cloudy with Light Rain 63 17 61 16 94 94 ESE 10 17 29.77 1008 9 14 0.00 0.00
4:44 am 04:44 Mostly Cloudy 63 17 61 16 94 94 ESE 10 17 29.77 1008 10 16 0.00 0.00
4:58 am 04:58 Mostly Cloudy 63 17.3 61 16.2 93 93 ESE 12 19 29.81 1009 10 16 0.03 0.76
5:04 am 05:04 Mostly Cloudy 63 17 61 16 94 94 ESE 12 19 29.77 1008 10 16 0.00 0.00
5:18 am 05:18 Cloudy 63 17 61 16 94 94 E 13 20 29.77 1008 10 16 0.00 0.00
5:36 am 05:36 Cloudy 63 17 61 16 94 94 ESE 14 22 29.77 1008 10 16 0.00 0.00
5:40 am 05:40 Cloudy 64 18 61 16 88 88 ESE 13 20 29.74 1007 10 16 0.00 0.00
5:58 am 05:58 Mostly Cloudy 64 17.5 62 16.4 93 93 E 10 17 29.77 1008 10 16 0.00 0.00
6:15 am 06:15 Mostly Cloudy 64 18 61 16 88 88 ESE 12 19 29.74 1007 10 16 0.00 0.00
6:19 am 06:19 Mostly Cloudy 64 18 61 16 88 88 ESE 10 17 29.74 1007 10 16 0.00 0.00
6:24 am 06:24 Mostly Cloudy 64 18 61 16 88 88 SE 10 17 29.74 1007 10 16 0.00 0.00
6:26 am 06:26 Mostly Cloudy 64 18 61 16 88 88 ESE 10 17 29.77 1008 10 16 0.00 0.00
6:58 am 06:58 Cloudy 63 17.4 61 16.3 93 93 SE 13 20 29.80 1009 10 16 0.00 0.00
7:00 am 07:00 Cloudy 63 17 61 16 94 94 SE 13 20 29.77 1008 10 16 0.00 0.00
7:58 am 07:58 Cloudy 65 18.1 62 16.9 93 93 SE 14 22 29.82 1010 10 16 0.00 0.00
8:11 am 08:11 Cloudy 64 18 63 17 94 94 SE 12 19 29.77 1008 10 16 0.00 0.00
8:47 am 08:47 Cloudy 66 19 63 17 88 88 SE 13 20 29.77 1008 10 16 0.00 0.00
8:58 am 08:58 Cloudy 65 18.5 63 17.1 92 92 SE 12 19 29.80 1009 9 14 0.00 0.00
9:58 am 09:58 Mostly Cloudy 68 20.1 64 17.5 85 85 SSE 14 22 29.78 1008 10 16 0.00 0.00
10:08 am 10:08 Mostly Cloudy 68 20 63 17 83 83 SSE 9 15 29.74 1007 10 16 0.00 0.00
10:14 am 10:14 Mostly Cloudy 68 20 64 18 88 88 S 9 15 29.74 1007 10 16 0.00 0.00
10:36 am 10:36 Mostly Cloudy 70 21 64 18 83 83 SSE 14 22 29.71 1006 10 16 0.00 0.00
10:50 am 10:50 Mostly Cloudy 68 20 63 17 83 83 SSE 9 15 29.74 1007 10 16 0.00 0.00
10:58 am 10:58 Mostly Cloudy 69 20.3 63 17.3 83 83 SSE 8 13 29.77 1008 10 16 0.00 0.00
11:58 am 11:58 Mostly Cloudy 69 20.4 63 17.4 83 83 SE 13 20 29.76 1008 10 16 0.00 0.00
12:03 pm 12:03 Partly Cloudy 70 21 63 17 78 78 SE 13 20 29.71 1006 10 16 0.00 0.00
12:09 pm 12:09 Mostly Cloudy 70 21 63 17 78 78 SE 17 28 29.71 1006 10 16 0.00 0.00
12:22 pm 12:22 Mostly Cloudy 68 20 63 17 83 83 SE 17 28 29.74 1007 10 16 0.00 0.00
12:26 pm 12:26 Mostly Cloudy with Light Rain 68 20 63 17 83 83 SSE 17 28 29.74 1007 10 16 0.00 0.00
12:34 pm 12:34 Mostly Cloudy with Drizzle 68 20 63 17 83 83 SE 14 22 29.74 1007 9 14 0.00 0.00
12:38 pm 12:38 Partly Cloudy 68 20 63 17 83 83 SE 14 22 29.74 1007 10 16 0.00 0.00
12:54 pm 12:54 Mostly Cloudy with Nearby Thunderstorms 68 20 63 17 83 83 SE 13 20 29.71 1006 10 16 0.00 0.00
12:58 pm 12:58 Partly Cloudy with Nearby Thunderstorms 68 19.9 63 17.3 85 85 SE 13 20 29.75 1007 10 16 0.00 0.03
1:00 pm 13:00 Cloudy with Thunderstorms 68 20 63 17 83 83 SE 13 20 29.71 1006 8 13 0.00 0.00
1:09 pm 13:09 Cloudy with Thunderstorms 68 20 63 17 83 83 SE 23 37 29.74 1007 9 14 0.00 0.00
1:12 pm 13:12 Mostly Cloudy with Strong Thunderstorms 66 19 63 17 88 88 SSE 32 52 29.74 1007 1 2 0.00 0.00
1:14 pm 13:14 Windy with Storms Likely 66 19 63 17 88 88 SSE 28 44 29.74 1007 6 10 0.00 0.00
1:23 pm 13:23 Mostly Cloudy with Thunderstorms 64 18 61 16 88 88 SE 21 33 29.74 1007 6 10 0.00 0.00
1:26 pm 13:26 Mostly Cloudy with Thunderstorms 64 18 61 16 88 88 SE 20 31 29.74 1007 10 16 0.00 0.00
1:32 pm 13:32 Partly Cloudy 64 18 61 16 88 88 SE 15 24 29.74 1007 10 16 0.00 0.00
1:58 pm 13:58 Cloudy 65 18.6 59 15 80 80 S 10 17 29.76 1008 10 16 0.14 3.56
2:39 pm 14:39 Cloudy with Light Rain 66 19 59 15 78 78 SSW 13 20 29.71 1006 10 16 0.00 0.00
2:58 pm 14:58 Cloudy with Light Rain 67 19.5 57 13.9 70 70 SSW 9 15 29.75 1007 10 16 0.00 0.03
3:17 pm 15:17 Partly Cloudy with Light Rain 70 21 55 13 60 60 SSW 10 17 29.68 1005 10 16 0.00 0.00
3:29 pm 15:29 Mostly Sunny 68 20 57 14 69 69 S 10 17 29.71 1006 10 16 0.00 0.00
3:52 pm 15:52 Mostly Cloudy with Light Rain 70 21 59 15 69 69 S 9 15 29.68 1005 10 16 0.00 0.00
3:58 pm 15:58 Cloudy 69 20.6 58 14.6 69 69 S 12 19 29.73 1007 10 16 0.00 0.03
4:03 pm 16:03 Cloudy with Light Rain 70 21 59 15 69 69 S 13 20 29.68 1005 10 16 0.00 0.00
4:29 pm 16:29 Mostly Cloudy with Light Rain 68 20 61 16 78 78 S 14 22 29.71 1006 10 16 0.00 0.00
4:58 pm 16:58 Partly Cloudy with Light Rain 66 18.9 61 16 83 83 SSE 9 15 29.74 1007 10 16 0.02 0.51
5:03 pm 17:03 Mostly Cloudy 66 19 61 16 83 83 SSE 12 19 29.71 1006 10 16 0.00 0.00
5:10 pm 17:10 Mostly Cloudy with Light Rain 64 18 61 16 88 88 SE 14 22 29.71 1006 10 16 0.00 0.00
5:27 pm 17:27 Mostly Cloudy 64 18 63 17 94 94 SE 10 17 29.71 1006 9 14 0.00 0.00
5:58 pm 17:58 Partly Cloudy 66 18.7 61 16.3 86 86 SSE 10 17 29.73 1007 10 16 0.01 0.25
6:41 pm 18:41 Mostly Cloudy 66 19 63 17 88 88 S 9 15 29.71 1006 10 16 0.00 0.00
6:47 pm 18:47 Partly Cloudy 66 19 63 17 88 88 S 13 20 29.71 1006 10 16 0.00 0.00
6:58 pm 18:58 Mostly Sunny 67 19.6 57 13.8 69 69 SSW 12 19 29.72 1006 10 16 0.00 0.00
7:58 pm 19:58 Mostly Sunny 65 18.4 56 13.1 71 71 WSW 14 22 29.73 1007 10 16 0.00 0.00
8:58 pm 20:58 Clear 60 15.4 47 8.5 64 64 WSW 14 22 29.76 1008 10 16 0.00 0.00
9:58 pm 21:58 Clear 55 12.9 45 7 68 68 WSW 13 20 29.82 1010 10 16 0.00 0.00
10:58 pm 22:58 Clear 53 11.5 42 5.7 68 68 WSW 13 20 29.83 1010 10 16 0.00 0.00
11:58 pm 23:58 Clear 51 10.3 42 5.6 73 73 W 8 13 29.86 1011 10 16 0.00 0.00

Powered by AerisWeather